CAPE
0 0 0 0 0 0 0 0 0 0 0 0 0 0 0 0 0 0 0 0 0 0 0 0 0 0 0 0 0 0 0 0 0 0 0 0 0 0 0 0 0 0 0 0
0 0 0 0 0 0 0 0 0 0 0 0 0 0 0 0 0 0 0 0 0 0 0 0 0 0 0 0 0 0 0 0 0 0 0 0 0 0 0 0 0 0 0 0
0 0 0 0 0 0 0 0 0 0 0 0 0 0 0 0 0 0 0 0 1 3 1 0 0 0 0 0 0 0 0 0 0 0 0 0 0 0 0 0 0 0 0 0
0 0 0 0 0 0 0 0 0 0 0 0 0 0 0 0 0 0 0 3 7 10 6 4 2 1 0 0 0 0 0 0 0 0 0 0 0 0 0 0 0 0 0 0
0 0 0 0 0 0 0 0 0 0 0 0 0 0 0 0 0 0 4 5 4 4 3 5 3 2 3 2 0 0 0 0 0 0 0 0 0 0 0 0 0 0 0 0
0 0 0 0 0 0 0 0 0 0 0 0 0 0 0 0 0 0 3 1 1 1 1 1 1 1 2 3 1 0 0 0 0 0 0 0 0 0 0 0 0 0 0 0
0 0 0 0 0 0 0 0 0 0 0 0 0 0 0 1 2 3 3 3 2 2 2 3 2 3 3 4 6 2 1 1 0 0 0 0 0 0 0 0 0 0 0 0
0 0 0 0 0 0 0 0 0 0 0 0 0 0 0 1 0 0 0 0 0 0 0 1 2 2 3 3 3 5 5 4 2 0 0 0 0 0 0 0 0 0 0 0
0 0 0 0 0 0 0 0 0 0 0 0 0 0 0 0 0 0 0 0 1 0 0 0 1 2 2 3 4 4 4 4 4 6 2 0 0 0 0 0 0 0 0 0
0 0 0 0 0 0 0 0 0 0 0 0 0 0 0 0 0 1 0 1 1 0 0 1 0 1 1 1 1 1 2 3 3 2 3 4 4 0 0 0 0 0 0 0
0 0 0 0 0 0 0 0 0 0 2 11 0 0 0 1 1 1 1 0 1 1 0 0 0 0 0 0 0 1 0 1 1 3 2 1 3 3 0 0 0 0 0 0
0 0 0 0 0 0 0 0 2 0 0 0 0 0 0 0 0 0 0 0 0 0 0 0 0 0 0 0 0 0 0 1 1 0 1 2 0 0 1 2 1 0 0 0
0 0 0 0 0 0 0 0 0 0 0 0 0 0 0 0 0 0 0 0 0 0 0 0 0 0 0 0 0 0 0 0 0 0 0 0 0 0 1 0 1 2 1 0
0 0 0 0 0 0 0 0 0 0 0 0 0 0 0 0 0 0 0 0 0 0 0 0 0 0 0 0 0 0 0 0 0 0 0 0 0 0 0 0 0 0 1 1
0 0 0 0 0 0 0 0 0 0 0 0 0 0 0 0 0 0 0 0 0 0 0 0 0 0 0 0 0 0 0 0 0 0 0 0 0 0 0 0 0 0 0 0
0 0 0 0 0 0 0 0 0 0 0 0 0 0 0 0 0 0 0 0 0 0 0 0 0 0 0 0 0 0 0 0 0 0 0 0 0 0 0 0 0 0 0 0
0 0 0 0 0 0 0 0 0 0 0 0 0 0 0 0 0 0 0 0 0 0 0 0 0 0 0 0 0 0 0 0 0 0 0 0 0 0 0 0 0 0 0 0
0 0 0 0 0 0 0 0 0 0 0 0 0 0 0 0 0 0 0 0 0 0 0 0 0 0 0 0 0 0 0 0 0 0 0 0 0 0 0 0 0 0 0 0
0 0 0 0 0 0 0 0 0 0 0 0 0 0 0 0 0 0 0 0 0 0 0 0 0 0 0 0 0 0 0 0 0 0 0 0 0 0 0 0 0 0 0 0
0 0 0 0 0 0 0 0 0 0 0 0 0 0 0 0 0 0 0 0 0 0 0 0 0 0 0 0 0 0 0 0 0 0 0 0 0 0 0 0 0 0 0 0
0 0 0 0 0 0 0 0 0 0 0 0 0 0 0 0 0 0 0 0 0 0 0 0 0 0 0 0 0 0 0 0 0 0 0 0 0 0 0 0 0 0 0 0
0 0 0 0 0 0 0 0 0 0 0 0 0 0 0 0 0 0 0 0 0 0 0 0 0 0 0 0 0 0 0 0 0 0 0 0 0 0 0 0 0 0 0 0
0 0 0 0 0 0 0 0 0 0 0 0 0 0 0 0 0 0 0 0 0 0 0 0 0 0 0 0 0 0 0 0 0 0 0 0 0 0 0 0 0 0 0 0
0 0 0 0 0 0 0 0 0 0 0 0 0 0 0 0 0 0 0 0 0 0 0 0 0 0 0 0 0 0 0 0 0 0 0 0 0 0 0 0 0 0 0 0
0 0 0 0 0 0 0 0 0 0 0 0 0 0 0 0 0 0 0 0 0 0 0 0 0 0 0 0 0 0 0 0 0 0 0 0 0 0 0 0 0 0 0 0
0 0 0 0 0 0 0 0 0 0 0 0 0 0 0 0 0 0 0 0 0 0 0 0 0 0 0 0 0 0 0 0 0 0 0 0 0 0 0 0 0 0 0 0
CIN
0 0 0 0 0 0 0 0 0 0 0 0 0 0 0 0 0 0 0 0 0 0 0 0 0 0 0 0 0 0 0 0 0 0 0 0 0 0 0 0 0 0 0 0
0 0 0 0 0 0 0 0 0 0 0 0 0 0 0 0 0 0 0 0 0 0 0 0 0 0 0 0 0 0 0 0 0 0 0 0 0 0 0 0 0 0 0 0
0 0 0 0 0 0 0 0 0 0 0 0 0 0 0 0 0 0 0 0 0 0 0 0 0 0 0 0 0 0 0 0 0 0 0 0 0 0 0 0 0 0 0 0
0 0 0 0 0 0 0 0 0 0 0 0 0 0 0 0 0 0 0 0 0 0 0 0 0 0 0 0 0 0 0 0 0 0 0 0 0 0 0 0 0 0 0 0
0 0 0 0 0 0 0 0 0 0 0 0 0 0 0 0 0 0 0 0 0 0 0 0 0 0 0 0 0 0 0 0 0 0 0 0 0 0 0 0 0 0 0 0
0 0 0 0 0 0 0 0 0 0 0 0 0 0 0 0 0 0 0 0 0 0 0 0 0 0 0 0 0 0 0 0 0 0 0 0 0 0 0 0 0 0 0 0
0 0 0 0 0 0 0 0 0 0 0 0 0 0 0 0 0 0 0 0 0 0 0 0 0 0 0 0 0 0 0 0 0 0 0 0 0 0 0 0 0 0 0 0
0 0 0 0 0 0 0 0 0 0 0 0 0 0 0 0 0 0 0 0 0 0 0 0 0 0 0 0 0 0 0 0 0 0 0 0 0 0 0 0 0 0 0 0
0 0 0 0 0 0 0 0 0 0 0 0 0 0 0 0 0 0 0 0 0 0 0 0 0 0 0 0 0 0 0 0 0 0 0 0 0 0 0 0 0 0 0 0
0 0 0 0 0 0 0 0 0 0 0 0 0 0 0 0 0 0 0 0 0 0 0 0 0 0 0 0 0 0 0 0 0 0 0 0 0 0 0 0 0 0 0 0
0 0 0 0 0 0 0 0 0 0 -1 -2 0 0 0 0 0 0 0 0 0 0 0 0 0 0 0 0 0 0 0 0 0 0 0 0 0 0 0 0 0 0 0 0
0 0 0 0 0 0 0 0 0 0 0 0 0 0 0 0 0 0 0 0 0 0 0 0 0 0 0 0 0 0 0 0 0 0 0 0 0 0 0 0 0 0 0 0
0 0 0 0 0 0 0 0 0 0 0 0 0 0 0 0 0 0 0 0 0 0 0 0 0 0 0 0 0 0 0 0 0 0 0 0 0 0 0 0 0 0 0 0
0 0 0 0 0 0 0 0 0 0 0 0 0 0 0 0 0 0 0 0 0 0 0 0 0 0 0 0 0 0 0 0 0 0 0 0 0 0 0 0 0 0 0 0
0 0 0 0 0 0 0 0 0 0 0 0 0 0 0 0 0 0 0 0 0 0 0 0 0 0 0 0 0 0 0 0 0 0 0 0 0 0 0 0 0 0 0 0
0 0 0 0 0 0 0 0 0 0 0 0 0 0 0 0 0 0 0 0 0 0 0 0 0 0 0 0 0 0 0 0 0 0 0 0 0 0 0 0 0 0 0 0
0 0 0 0 0 0 0 0 0 0 0 0 0 0 0 0 0 0 0 0 0 0 0 0 0 0 0 0 0 0 0 0 0 0 0 0 0 0 0 0 0 0 0 0
0 0 0 0 0 0 0 0 0 0 0 0 0 0 0 0 0 0 0 0 0 0 0 0 0 0 0 0 0 0 0 0 0 0 0 0 0 0 0 0 0 0 0 0
0 0 0 0 0 0 0 0 0 0 0 0 0 0 0 0 0 0 0 0 0 0 0 0 0 0 0 0 0 0 0 0 0 0 0 0 0 0 0 0 0 0 0 0
0 0 0 0 0 0 0 0 0 0 0 0 0 0 0 0 0 0 0 0 0 0 0 0 0 0 0 0 0 0 0 0 0 0 0 0 0 0 0 0 0 0 0 0
0 0 0 0 0 0 0 0 0 0 0 0 0 0 0 0 0 0 0 0 0 0 0 0 0 0 0 0 0 0 0 0 0 0 0 0 0 0 0 0 0 0 0 0
0 0 0 0 0 0 0 0 0 0 0 0 0 0 0 0 0 0 0 0 0 0 0 0 0 0 0 0 0 0 0 0 0 0 0 0 0 0 0 0 0 0 0 0
0 0 0 0 0 0 0 0 0 0 0 0 0 0 0 0 0 0 0 0 0 0 0 0 0 0 0 0 0 0 0 0 0 0 0 0 0 0 0 0 0 0 0 0
0 0 0 0 0 0 0 0 0 0 0 0 0 0 0 0 0 0 0 0 0 0 0 0 0 0 0 0 0 0 0 0 0 0 0 0 0 0 0 0 0 0 0 0
0 0 0 0 0 0 0 0 0 0 0 0 0 0 0 0 0 0 0 0 0 0 0 0 0 0 0 0 0 0 0 0 0 0 0 0 0 0 0 0 0 0 0 0
0 0 0 0 0 0 0 0 0 0 0 0 0 0 0 0 0 0 0 0 0 0 0 0 0 0 0 0 0 0 0 0 0 0 0 0 0 0 0 0 0 0 0 0
Wind_Speed
20 23 25 23 22 27 29 31 35 31 27 35 37 41 43 36 35 38 36 35 36 37 36 35 28 19 16 13 13 13 13 12 11 12 13 13 13 12 12 12 11 9 8 6
25 31 30 28 28 30 34 39 42 40 34 29 37 44 44 40 29 27 31 32 34 35 34 34 30 18 16 15 15 14 14 13 13 14 15 16 14 15 15 14 13 12 10 8
29 28 22 24 28 31 35 36 38 40 39 37 40 46 36 23 21 25 29 30 31 33 33 33 30 24 19 17 16 16 15 14 14 14 14 16 15 17 17 16 15 14 12 11
29 29 33 31 34 30 42 30 35 38 37 43 29 47 32 28 27 29 30 31 33 33 32 31 29 25 23 21 19 18 17 15 15 14 15 16 17 18 19 18 16 14 15 14
24 25 25 27 27 23 34 28 31 34 36 38 37 38 35 29 28 33 33 33 33 32 31 30 28 26 24 22 19 18 17 16 16 16 16 17 18 19 19 18 17 17 16 17
30 27 29 27 26 24 26 29 30 31 32 45 39 35 42 37 35 34 33 31 32 31 30 29 28 26 25 23 21 20 19 18 17 18 18 18 19 19 20 20 19 19 19 19
33 31 28 27 33 30 30 32 41 43 41 49 36 36 40 31 30 30 32 31 31 31 31 30 29 28 26 24 23 21 21 22 23 21 20 20 20 21 22 22 22 21 22 22
36 38 26 24 26 31 30 29 36 46 47 46 33 41 38 28 28 29 29 29 30 31 31 31 30 28 27 26 26 25 24 24 24 25 27 26 23 23 25 25 24 24 24 24
35 35 27 31 27 26 28 32 30 41 43 50 45 40 33 30 32 33 34 33 33 33 33 32 30 28 29 29 28 28 27 26 25 25 25 25 27 29 29 27 26 26 26 26
29 43 33 31 30 27 30 31 40 35 49 55 47 45 43 39 39 37 37 36 35 33 33 33 31 31 31 30 29 28 27 27 26 25 24 24 25 27 28 28 30 30 28 27
31 33 38 38 35 39 38 38 36 39 41 54 61 50 36 37 37 38 37 36 36 35 34 33 32 32 32 31 30 29 29 28 28 26 26 26 26 26 26 27 28 30 30 29
28 33 45 41 38 31 31 34 35 44 47 43 47 49 33 32 32 34 35 36 36 34 34 34 33 33 33 33 32 32 31 30 29 28 28 27 27 27 27 27 27 28 28 28
31 33 46 43 30 30 33 33 35 37 39 46 51 47 31 33 34 34 35 36 36 36 36 36 35 34 34 34 34 33 33 33 32 31 30 29 29 28 29 29 28 28 28 28
27 33 37 47 43 41 46 45 40 41 49 52 51 48 43 41 40 36 35 35 35 37 37 37 36 36 36 36 36 36 35 34 34 32 31 31 31 30 29 29 29 29 29 30
25 37 36 37 40 42 42 45 43 43 42 49 48 44 42 40 40 35 34 35 36 36 36 37 37 37 36 36 36 35 35 34 34 33 33 33 32 31 31 30 30 30 30 31
31 37 39 44 39 36 38 38 37 38 38 38 38 40 35 37 36 36 36 37 38 38 38 38 38 37 37 37 37 36 36 34 33 33 32 32 32 32 32 33 32 32 32 32
33 33 34 42 32 32 41 36 35 34 33 35 40 35 35 37 39 39 39 38 40 40 40 39 39 39 37 37 37 38 38 36 35 35 34 34 34 33 33 33 33 34 34 33
27 28 29 36 33 45 30 26 28 30 30 29 31 32 34 36 39 38 28 34 40 41 41 41 40 39 39 38 38 38 37 37 36 36 35 36 37 37 37 36 36 35 35 35
17 25 31 35 35 34 31 29 31 31 31 27 32 33 35 37 37 30 24 38 41 42 41 41 41 40 39 39 38 39 38 38 37 37 38 38 38 38 38 38 37 37 37 37
22 24 27 30 37 40 30 25 25 22 34 27 30 35 37 37 39 32 37 43 42 41 41 42 41 39 39 39 38 38 40 39 36 38 38 38 38 38 39 37 36 35 36 36
28 28 28 28 31 28 23 25 21 30 30 31 33 35 35 34 33 40 42 42 40 40 41 41 41 41 40 39 38 41 39 38 37 39 38 39 38 39 38 38 36 37 38 37
26 27 26 25 28 30 23 23 25 22 26 31 32 32 35 38 40 41 41 41 42 42 42 41 42 41 41 39 41 42 41 41 42 40 41 40 40 39 38 38 37 37 37 37
24 22 24 23 24 21 23 22 19 23 31 34 34 36 39 41 42 42 42 42 43 43 43 42 42 43 41 41 41 43 44 43 41 42 43 41 40 38 38 38 36 37 37 39
21 24 21 25 21 24 28 19 22 27 36 36 36 39 39 42 41 42 42 43 43 42 43 43 44 43 46 43 43 45 45 43 44 45 43 42 42 42 39 39 39 40 41 41
23 24 26 22 22 27 22 24 31 39 36 39 39 38 39 40 43 42 43 43 43 44 45 42 46 46 46 46 45 44 45 45 45 45 45 44 43 43 43 42 41 41 40 39
23 24 25 24 26 25 29 33 37 36 43 42 42 42 40 41 43 43 44 44 45 46 46 47 46 47 48 48 47 47 46 46 46 47 46 45 46 45 43 43 44 41 42 42
Wind_Direction
290 283 283 284 283 288 293 292 290 296 301 298 295 291 288 298 303 299 305 306 304 299 301 299 294 282 272 259 250 240 237 243 244 256 262 268 269 276 281 285 287 288 289 291
287 280 286 290 288 286 287 287 287 292 299 298 297 290 290 297 309 315 314 315 313 311 312 307 302 293 268 257 256 252 245 243 246 255 264 272 271 278 280 282 283 284 284 282
282 290 307 294 292 288 287 287 291 291 296 298 298 292 299 309 317 320 321 320 321 320 316 315 313 303 291 272 259 254 252 246 247 253 260 276 275 279 277 278 279 280 282 281
291 295 289 290 290 292 287 296 293 293 295 291 300 289 295 300 304 315 319 321 320 320 322 322 320 317 306 291 280 272 266 260 259 256 260 264 264 268 274 276 278 279 281 280
299 304 303 298 299 301 295 302 298 296 294 293 290 291 295 302 298 307 314 319 321 321 322 323 323 321 320 310 294 281 274 269 266 261 263 264 267 271 276 277 276 279 281 281
294 303 301 302 305 303 306 304 302 300 295 286 289 288 290 293 295 302 310 317 320 321 322 325 326 327 324 321 313 300 287 280 272 268 269 265 265 269 273 274 274 277 280 280
300 300 303 304 296 298 297 298 293 290 287 286 297 286 290 299 306 308 309 313 317 321 322 322 323 324 324 323 319 312 305 295 288 278 272 271 270 271 273 274 274 275 277 279
297 295 306 316 309 303 299 292 288 289 289 290 299 288 290 303 308 311 314 316 315 317 321 322 321 323 324 324 323 318 312 305 299 292 283 280 276 276 278 278 277 277 276 278
300 296 304 308 311 308 303 295 300 291 291 289 287 290 293 300 304 307 307 310 313 315 315 317 319 321 322 323 321 318 313 309 307 302 295 290 286 283 281 280 279 279 280 280
310 296 303 307 311 307 301 303 294 294 290 286 288 287 287 293 296 303 305 306 309 314 315 316 317 318 321 324 323 322 319 315 311 308 306 301 297 294 290 287 284 283 282 281
315 303 300 306 305 303 302 298 297 296 288 286 286 287 298 297 300 300 303 306 307 311 313 315 316 317 318 321 321 320 319 317 315 311 308 305 303 302 299 295 293 289 285 283
319 309 300 303 308 314 309 304 303 292 290 291 290 286 302 302 304 305 304 305 307 311 312 313 314 314 315 316 316 315 315 315 314 312 310 309 307 305 301 299 300 299 294 290
319 310 303 305 314 320 311 312 309 304 299 290 289 289 308 308 305 307 304 305 307 308 311 313 314 315 314 315 315 313 312 311 311 310 309 308 308 307 303 300 301 303 300 295
316 307 301 298 302 306 301 303 307 302 294 292 290 291 298 301 300 304 307 308 307 307 308 310 312 312 313 313 313 312 311 310 309 308 307 305 305 306 304 304 305 303 302 297
319 306 306 305 306 307 305 304 304 300 298 292 294 293 298 302 302 301 305 308 310 311 311 310 309 311 311 314 314 314 312 312 310 307 306 304 306 304 303 305 306 304 302 299
321 308 310 306 307 306 303 309 307 306 303 300 298 296 305 304 303 301 302 304 307 308 309 310 311 309 311 313 311 311 311 310 310 306 306 305 304 305 305 305 303 302 300 301
313 311 312 308 313 311 304 309 310 308 310 306 299 303 309 306 304 300 299 301 303 305 306 311 311 307 311 312 309 306 305 304 306 303 302 304 307 306 305 304 303 302 302 302
314 315 313 310 313 303 313 323 321 313 312 315 312 312 312 311 309 305 301 307 307 306 307 307 307 309 310 309 307 306 305 305 304 305 307 307 305 303 304 304 304 303 303 302
319 320 314 311 310 312 314 317 317 315 312 318 315 316 316 315 313 312 310 313 311 307 307 308 309 312 313 312 313 309 306 308 307 305 306 306 307 307 307 305 304 304 302 302
334 333 316 315 310 308 319 327 328 327 310 323 322 318 316 318 309 311 313 311 310 310 310 310 312 315 315 316 316 314 312 312 314 313 312 313 311 310 308 308 309 308 305 302
323 324 319 318 314 318 330 329 335 317 319 325 324 320 320 318 317 313 313 313 313 313 312 312 312 311 312 314 313 311 311 310 314 313 312 311 310 308 307 307 307 306 303 301
325 325 324 325 320 317 336 333 324 331 334 330 329 326 321 317 315 315 315 315 315 314 314 314 312 312 312 314 312 310 309 312 312 311 310 309 308 308 307 306 305 304 303 302
328 334 328 328 327 334 338 334 338 335 329 328 326 324 320 317 316 317 317 317 317 316 315 315 313 312 313 313 312 309 309 312 311 309 307 308 307 307 307 306 305 302 302 300
339 341 333 330 338 334 329 335 334 332 325 326 325 323 322 319 319 318 318 318 317 317 316 315 314 312 311 313 312 310 309 310 307 305 305 305 304 304 306 304 303 300 299 298
340 338 333 333 337 336 342 338 330 323 326 325 325 324 323 321 319 319 318 318 317 317 316 316 313 312 311 311 311 311 309 308 306 304 304 303 303 302 301 300 299 298 298 297
348 342 338 334 337 334 329 329 327 327 323 323 323 322 324 323 320 320 319 319 318 317 317 315 314 312 311 310 310 309 309 307 305 303 303 302 301 300 300 299 298 299 297 296